IW9GDC-13 Weather Reports


Display with metric or nautical units.
time (UTC)temp
F
wind
direction
speed
MPH
gust
MPH
rain 1hr
in
rain 24hr
in
rain mn
in
humidity
%
barometer
mb
20260510212517 67 338 7.0 14.0 0.00 0.13 0.13 75 1015.2
20260510212018 67 338 5.0 11.0 0.00 0.13 0.13 74 1015.2
20260510211518 67 0 4.0 11.0 0.00 0.13 0.13 73 1015.4
20260510211018 67 0 3.0 9.0 0.00 0.13 0.13 73 1015.3
20260510210517 67 0 4.0 12.0 0.00 0.13 0.13 73 1015.4
20260510210017 67 0 5.0 11.0 0.00 0.13 0.13 73 1015.2
20260510205517 68 0 4.0 8.0 0.00 0.13 0.13 73 1015.2
20260510205017 67 0 4.0 10.0 0.00 0.13 0.13 73 1015.3
20260510204517 67 315 3.0 7.0 0.00 0.13 0.13 73 1015.3
20260510204017 67 293 4.0 11.0 0.00 0.13 0.13 73 1015.3
20260510203517 67 338 3.0 9.0 0.00 0.13 0.13 74 1015.4
20260510203017 67 0 5.0 12.0 0.00 0.13 0.13 73 1015.4
20260510202517 68 23 4.0 12.0 0.00 0.13 0.13 73 1015.4
20260510202017 68 0 5.0 15.0 0.00 0.13 0.13 73 1015.4
20260510201517 68 315 5.0 12.0 0.00 0.13 0.13 73 1015.5
20260510201037 68 315 4.0 9.0 0.00 0.13 0.13 73 1015.5
20260510200518 68 0 5.0 10.0 0.00 0.13 0.13 72 1015.6
20260510200017 68 0 4.0 7.0 0.00 0.13 0.13 72 1015.6
20260510195518 68 0 4.0 7.0 0.00 0.13 0.13 70 1015.6
20260510195017 68 315 4.0 9.0 0.00 0.13 0.13 70 1015.6
20260510194517 69 293 5.0 10.0 0.00 0.13 0.13 70 1015.4
20260510194018 69 0 1.0 5.0 0.00 0.13 0.13 70 1015.4
20260510193537 69 338 2.0 5.0 0.00 0.13 0.13 69 1015.4
20260510193037 69 338 3.0 9.0 0.00 0.13 0.13 69 1015.4
20260510192517 69 0 1.0 6.0 0.00 0.13 0.13 68 1015.3
20260510192037 69 315 2.0 6.0 0.00 0.13 0.13 69 1015.2
20260510191517 69 315 1.0 3.0 0.00 0.13 0.13 69 1015.2
20260510191037 69 338 1.0 2.0 0.00 0.13 0.13 69 1015.1
20260510190537 69 338 1.0 4.0 0.00 0.13 0.13 69 1015.1
20260510190017 69 0 1.0 4.0 0.00 0.13 0.13 69 1015.0
20260510185517 69 315 2.0 5.0 0.00 0.13 0.13 69 1015.0
20260510185017 69 338 2.0 5.0 0.00 0.13 0.13 69 1014.9
20260510184517 69 338 2.0 5.0 0.00 0.13 0.13 69 1014.8
20260510184057 69 338 2.0 4.0 0.00 0.13 0.13 69 1014.7
20260510183537 69 315 1.0 2.0 0.00 0.13 0.13 70 1014.7
20260510183017 69 0 2.0 5.0 0.00 0.13 0.13 69 1014.6
20260510182518 69 338 2.0 6.0 0.00 0.13 0.13 69 1014.6
20260510182017 69 338 2.0 5.0 0.00 0.13 0.13 70 1014.7
20260510181517 69 315 4.0 7.0 0.00 0.13 0.13 70 1014.8
20260510181017 69 0 3.0 6.0 0.00 0.13 0.13 70 1014.9
20260510180517 69 0 2.0 5.0 0.00 0.13 0.13 71 1014.6
20260510180017 69 270 1.0 4.0 0.00 0.13 0.13 72 1014.7
20260510175537 69 270 2.0 4.0 0.00 0.13 0.13 72 1014.7
20260510175017 69 0.0 3.0 0.00 0.13 0.13 72 1014.6
20260510174517 69 315 1.0 4.0 0.00 0.13 0.13 72 1014.7
20260510174057 69 315 2.0 4.0 0.00 0.13 0.13 71 1014.7
20260510173517 70 338 2.0 3.0 0.00 0.13 0.13 71 1014.8
20260510173037 70 338 3.0 6.0 0.00 0.13 0.13 71 1014.7
20260510172517 70 270 1.0 5.0 0.00 0.13 0.13 70 1014.7
20260510172017 70 270 2.0 7.0 0.00 0.13 0.13 70 1014.8
20260510171537 70 338 4.0 8.0 0.00 0.13 0.13 70 1014.7
20260510171017 71 315 2.0 6.0 0.00 0.13 0.13 69 1014.7
20260510170517 71 338 1.0 4.0 0.00 0.13 0.13 69 1014.7
20260510170017 71 315 2.0 5.0 0.00 0.13 0.13 68 1014.6
20260510165517 71 293 1.0 3.0 0.00 0.13 0.13 70 1014.5
20260510165017 71 248 1.0 4.0 0.00 0.13 0.13 70 1014.5
20260510164516 71 90 2.0 5.0 0.00 0.13 0.13 69 1014.6
20260510164017 72 270 2.0 5.0 0.00 0.13 0.13 69 1014.7
20260510163517 72 158 2.0 4.0 0.00 0.13 0.13 69 1014.6
20260510163037 72 90 2.0 5.0 0.00 0.13 0.13 69 1014.7
20260510162537 72 90 3.0 9.0 0.00 0.13 0.13 68 1014.7
20260510162017 72 68 4.0 7.0 0.00 0.13 0.13 68 1014.7
20260510161516 72 68 4.0 10.0 0.00 0.13 0.13 67 1014.8
20260510161017 73 68 3.0 7.0 0.00 0.13 0.13 66 1014.8
20260510160517 73 293 2.0 7.0 0.00 0.13 0.13 65 1014.8
20260510160017 74 180 2.0 4.0 0.00 0.13 0.13 65 1014.8
20260510155517 74 293 2.0 7.0 0.00 0.13 0.13 64 1014.8
20260510155016 73 45 1.0 5.0 0.00 0.13 0.13 65 1014.8
20260510154518 73 0 2.0 4.0 0.00 0.13 0.13 65 1014.9
20260510154016 73 0 2.0 6.0 0.00 0.13 0.13 64 1015.0
20260510153516 73 135 1.0 3.0 0.00 0.13 0.13 62 1015.0
20260510153036 73 68 3.0 9.0 0.00 0.13 0.13 58 1015.0
20260510152517 73 68 3.0 6.0 0.00 0.13 0.13 58 1015.0
20260510152036 73 45 2.0 4.0 0.00 0.13 0.13 58 1015.1
20260510151517 72 135 2.0 4.0 0.00 0.13 0.13 57 1015.2
20260510151018 72 135 2.0 4.0 0.00 0.13 0.13 56 1015.4
20260510150517 72 135 3.0 4.0 0.00 0.13 0.13 56 1015.3
20260510150016 72 113 4.0 5.0 0.00 0.13 0.13 56 1015.2
20260510145516 72 135 3.0 5.0 0.00 0.13 0.13 56 1015.2
20260510145017 72 135 2.0 5.0 0.00 0.13 0.13 57 1015.3
20260510144517 71 68 1.0 4.0 0.00 0.13 0.13 58 1015.3
20260510144036 71 0.0 2.0 0.00 0.13 0.13 57 1015.5
20260510143517 70 68 2.0 4.0 0.00 0.13 0.13 56 1015.5
20260510143024 70 315 2.0 5.0 0.00 0.13 0.13 57 1015.4
20260510142536 70 45 3.0 5.0 0.00 0.13 0.13 60 1015.4
20260510142016 70 45 3.0 5.0 0.00 0.13 0.13 62 1015.5
20260510141534 70 68 4.0 7.0 0.00 0.13 0.13 63 1015.5
20260510141016 70 113 4.0 9.0 0.00 0.13 0.13 64 1015.5
20260510140016 69 113 8.0 13.0 0.00 0.13 0.13 68 1015.4
20260510135516 72 90 6.0 11.0 0.00 0.13 0.13 63 1015.2
20260510135016 73 113 7.0 11.0 0.00 0.13 0.13 58 1015.0
20260510134516 74 113 6.0 11.0 0.00 0.13 0.13 56 1015.1
20260510134017 76 135 6.0 10.0 0.00 0.13 0.13 53 1015.1
20260510133544 76 135 5.0 13.0 0.00 0.13 0.13 52 1015.3
20260510133021 76 158 6.0 11.0 0.00 0.13 0.13 52 1015.2
20260510132516 75 158 6.0 12.0 0.00 0.13 0.13 53 1015.2
20260510132029 74 113 6.0 11.0 0.00 0.13 0.13 53 1015.2
20260510131521 73 113 7.0 12.0 0.00 0.13 0.13 57 1015.3
20260510131016 75 135 7.0 12.0 0.00 0.13 0.13 54 1015.5
20260510130518 75 180 7.0 15.0 0.00 0.13 0.13 53 1015.5
20260510130022 74 135 7.0 12.0 0.00 0.13 0.13 54 1015.4
20260510125526 74 135 9.0 17.0 0.00 0.13 0.13 53 1015.5
20260510125016 74 158 7.0 12.0 0.00 0.13 0.13 54 1015.6
20260510124536 74 158 9.0 16.0 0.00 0.13 0.13 55 1015.6
20260510124016 74 135 9.0 15.0 0.00 0.13 0.13 55 1015.6
20260510123532 73 135 8.0 14.0 0.00 0.13 0.13 57 1015.7
20260510123016 73 135 7.0 15.0 0.00 0.13 0.13 57 1015.7
20260510122516 73 158 8.0 15.0 0.00 0.13 0.13 57 1015.8
20260510122026 72 135 8.0 17.0 0.00 0.13 0.13 58 1015.9
20260510121536 72 135 8.0 13.0 0.00 0.13 0.13 62 1015.9
20260510121016 72 135 8.0 14.0 0.00 0.13 0.13 61 1015.9
20260510120516 73 135 9.0 14.0 0.00 0.13 0.13 58 1015.9
20260510120016 72 135 8.0 14.0 0.00 0.13 0.13 57 1015.8
20260510115516 72 135 8.0 14.0 0.00 0.13 0.13 57 1015.9
20260510115016 71 135 7.0 13.0 0.00 0.13 0.13 59 1015.8
20260510114516 71 135 9.0 16.0 0.00 0.13 0.13 62 1015.8
20260510114036 71 135 10.0 18.0 0.00 0.13 0.13 61 1016.0
20260510113516 71 135 10.0 18.0 0.00 0.13 0.13 59 1015.9
20260510113016 71 135 10.0 20.0 0.00 0.13 0.13 58 1015.9
20260510112516 71 135 10.0 18.0 0.00 0.13 0.13 60 1015.8
20260510112016 70 135 12.0 21.0 0.00 0.13 0.13 60 1015.9
20260510111516 70 135 12.0 19.0 0.00 0.13 0.13 58 1016.1
20260510111016 69 135 11.0 17.0 0.00 0.13 0.13 62 1016.2
20260510110518 71 135 9.0 15.0 0.00 0.13 0.13 62 1016.2
20260510110018 71 158 11.0 19.0 0.00 0.13 0.13 57 1016.2
20260510105518 70 135 11.0 16.0 0.00 0.13 0.13 58 1016.2
20260510105018 71 135 11.0 20.0 0.00 0.13 0.13 57 1016.1
20260510104518 71 135 11.0 21.0 0.00 0.13 0.13 56 1016.1
20260510104018 71 135 13.0 24.0 0.00 0.13 0.13 55 1016.0
20260510103518 72 135 10.0 20.0 0.00 0.13 0.13 54 1016.0
20260510103018 72 135 10.0 20.0 0.00 0.13 0.13 52 1016.0
20260510102518 72 158 13.0 21.0 0.00 0.13 0.13 53 1016.0
20260510102018 72 135 14.0 24.0 0.00 0.13 0.13 53 1015.9
20260510101518 72 135 11.0 21.0 0.00 0.13 0.13 53 1015.9
20260510101018 71 158 13.0 26.0 0.00 0.13 0.13 54 1015.9
20260510100518 71 135 13.0 24.0 0.00 0.13 0.13 56 1016.1
20260510100018 71 135 11.0 20.0 0.00 0.13 0.13 57 1015.9
20260510095518 71 135 14.0 24.0 0.00 0.13 0.13 57 1015.9
20260510095018 71 135 13.0 21.0 0.00 0.13 0.13 57 1015.9
20260510094518 71 135 11.0 25.0 0.00 0.13 0.13 56 1015.8
20260510094018 70 135 16.0 25.0 0.00 0.13 0.13 55 1015.8
20260510093518 70 158 15.0 25.0 0.00 0.13 0.13 55 1015.9
20260510093018 70 158 12.0 22.0 0.00 0.13 0.13 57 1015.9
20260510092518 70 135 12.0 21.0 0.00 0.13 0.13 55 1016.0
20260510092018 70 135 11.0 19.0 0.00 0.13 0.13 58 1015.9
20260510091518 69 135 12.0 22.0 0.00 0.13 0.13 59 1016.0
20260510091017 69 158 14.0 24.0 0.00 0.13 0.13 60 1015.9
20260510090517 69 158 16.0 26.0 0.00 0.13 0.13 60 1015.9
20260510090018 69 158 16.0 29.0 0.00 0.13 0.13 60 1015.8
20260510085518 69 135 13.0 25.0 0.00 0.13 0.13 61 1015.8
20260510085018 70 135 16.0 26.0 0.00 0.13 0.13 62 1015.7
20260510084517 70 135 13.0 21.0 0.00 0.13 0.13 62 1015.5
20260510084017 70 135 11.0 19.0 0.00 0.13 0.13 64 1015.5
20260510083517 70 135 10.0 20.0 0.00 0.13 0.13 62 1015.6
20260510083017 70 158 11.0 19.0 0.00 0.13 0.13 63 1015.4
20260510082557 70 135 10.0 20.0 0.00 0.13 0.13 64 1015.3
20260510082017 70 158 9.0 17.0 0.00 0.13 0.13 64 1015.2
20260510081538 70 135 8.0 15.0 0.00 0.13 0.13 64 1015.2
20260510081017 69 135 9.0 14.0 0.00 0.13 0.13 67 1015.2
20260510080538 69 135 11.0 19.0 0.00 0.13 0.13 67 1015.0
20260510080018 70 135 8.0 13.0 0.00 0.13 0.13 67 1015.0
20260510075518 70 135 7.0 14.0 0.00 0.13 0.13 63 1015.0
20260510075017 70 135 5.0 12.0 0.00 0.13 0.13 64 1015.1
20260510074517 70 180 5.0 10.0 0.00 0.13 0.13 61 1015.1
20260510074018 70 180 5.0 9.0 0.00 0.13 0.13 63 1015.1
20260510073517 70 180 7.0 15.0 0.00 0.13 0.13 64 1015.1
20260510073017 70 158 9.0 14.0 0.00 0.13 0.13 63 1015.2
20260510072517 70 158 8.0 15.0 0.00 0.13 0.13 67 1015.1
20260510072017 69 135 7.0 16.0 0.00 0.13 0.13 74 1015.1
20260510071517 69 135 7.0 12.0 0.00 0.13 0.13 74 1015.2
20260510071017 69 135 5.0 10.0 0.00 0.13 0.13 74 1015.1
20260510070517 69 113 2.0 5.0 0.00 0.13 0.13 74 1015.0
20260510070017 68 158 3.0 6.0 0.00 0.13 0.13 75 1015.1
20260510065517 68 180 3.0 7.0 0.00 0.13 0.13 76 1015.3
20260510065017 67 180 4.0 6.0 0.00 0.13 0.13 76 1015.3
20260510064517 67 203 4.0 6.0 0.00 0.13 0.13 77 1015.7
20260510064018 66 203 3.0 6.0 0.00 0.13 0.13 78 1015.9
20260510063517 66 203 3.0 5.0 0.00 0.13 0.13 78 1015.9
20260510063017 66 225 5.0 7.0 0.00 0.13 0.13 78 1016.3
20260510062517 65 248 3.0 6.0 0.00 0.13 0.13 80 1016.4
20260510062017 65 248 7.0 14.0 0.00 0.13 0.13 81 1016.2
20260510061517 65 225 3.0 7.0 0.00 0.13 0.13 81 1016.4
20260510061017 65 248 7.0 13.0 0.00 0.13 0.13 81 1016.5
20260510060517 65 180 5.0 10.0 0.00 0.13 0.13 82 1016.5
20260510060017 64 158 4.0 9.0 0.00 0.13 0.13 83 1016.7
20260510055517 64 113 7.0 12.0 0.00 0.13 0.13 84 1016.7
20260510055017 64 113 6.0 11.0 0.00 0.13 0.13 84 1016.9
20260510054517 64 113 5.0 11.0 0.00 0.13 0.13 83 1016.7
20260510054057 65 113 7.0 11.0 0.00 0.13 0.13 81 1016.4
20260510053517 66 113 6.0 11.0 0.02 0.13 0.13 80 1016.3
20260510053017 66 293 2.0 7.0 0.02 0.13 0.13 78 1015.8
20260510052517 66 293 1.0 4.0 0.02 0.13 0.13 78 1015.7
20260510052017 66 248 1.0 2.0 0.03 0.13 0.13 79 1015.7
20260510051517 66 293 1.0 2.0 0.04 0.13 0.13 79 1015.7
20260510051017 66 270 3.0 6.0 0.04 0.13 0.13 78 1015.7
20260510050017 66 270 3.0 5.0 0.04 0.13 0.13 81 1015.3
20260510045517 65 315 2.0 3.0 0.04 0.13 0.13 83 1014.7
20260510045017 65 293 2.0 5.0 0.04 0.13 0.13 85 1014.7
20260510044517 65 270 3.0 10.0 0.04 0.13 0.13 86 1014.8
20260510044017 64 270 4.0 9.0 0.04 0.13 0.13 86 1015.0
20260510043517 64 270 3.0 5.0 0.04 0.13 0.13 86 1015.1
20260510043017 64 270 2.0 5.0 0.02 0.11 0.11 86 1015.3
20260510042517 64 293 1.0 3.0 0.02 0.11 0.11 85 1015.7
20260510042037 64 293 2.0 3.0 0.02 0.11 0.11 85 1015.6
20260510041517 64 315 2.0 3.0 0.01 0.10 0.10 84 1016.2
20260510041017 64 270 2.0 4.0 0.01 0.09 0.09 84 1017.1
20260510040517 64 270 3.0 5.0 0.01 0.09 0.09 84 1017.3
20260510040018 64 248 2.0 5.0 0.01 0.09 0.09 83 1016.9
20260510035517 64 293 3.0 5.0 0.01 0.09 0.09 83 1016.7
20260510035017 64 293 2.0 4.0 0.01 0.09 0.09 82 1017.2
20260510034517 64 293 3.0 6.0 0.01 0.09 0.09 82 1017.1
20260510034037 63 270 4.0 7.0 0.01 0.09 0.09 83 1017.3
20260510033537 63 293 2.0 5.0 0.01 0.09 0.09 83 1017.6
20260510033037 63 293 3.0 5.0 0.01 0.09 0.09 83 1017.4
20260510032517 62 293 4.0 5.0 0.02 0.09 0.09 83 1017.3
20260510032017 62 293 3.0 5.0 0.03 0.09 0.09 85 1017.3
20260510031537 63 270 3.0 4.0 0.03 0.09 0.09 85 1017.4
20260510031057 62 315 1.0 2.0 0.02 0.08 0.08 85 1017.4
20260510030517 62 338 2.0 4.0 0.02 0.08 0.08 85 1017.7
20260510030017 62 315 4.0 6.0 0.02 0.08 0.08 84 1017.8
20260510025516 62 293 4.0 5.0 0.03 0.08 0.08 84 1018.0
20260510025017 63 270 3.0 4.0 0.03 0.08 0.08 85 1018.1
20260510024537 63 293 2.0 3.0 0.03 0.08 0.08 83 1017.9
20260510024016 63 68 2.0 3.0 0.03 0.08 0.08 83 1018.0
20260510023516 63 338 2.0 3.0 0.03 0.08 0.08 83 1018.1
20260510023016 63 315 3.0 4.0 0.03 0.08 0.08 82 1018.1
20260510022516 63 68 3.0 4.0 0.02 0.07 0.07 81 1018.2
20260510022037 64 0 4.0 6.0 0.01 0.06 0.06 80 1018.8
20260510021617 64 23 5.0 7.0 0.01 0.06 0.06 79 1018.9
20260510021016 65 68 2.0 4.0 0.01 0.06 0.06 77 1019.0
20260510020517 65 113 2.0 4.0 0.01 0.06 0.06 76 1018.6
20260510020017 66 225 1.0 4.0 0.01 0.06 0.06 76 1018.5
20260510015516 66 270 1.0 3.0 0.00 0.05 0.05 75 1018.4
20260510015036 66 113 3.0 7.0 0.00 0.05 0.05 75 1018.2
20260510014516 65 113 5.0 13.0 0.04 0.05 0.05 76 1018.2
20260510014037 65 203 1.0 4.0 0.05 0.05 0.05 77 1018.0
20260510013517 65 270 2.0 5.0 0.05 0.05 0.05 78 1017.9
20260510013016 65 90 2.0 4.0 0.05 0.05 0.05 75 1017.5
20260510012517 66 90 2.0 4.0 0.05 0.05 0.05 75 1017.5
20260510012036 66 158 2.0 4.0 0.05 0.05 0.05 74 1017.5
20260510011516 66 158 2.0 4.0 0.05 0.05 0.05 74 1017.6
20260510011016 66 158 3.0 6.0 0.05 0.05 0.05 73 1017.1
20260510010517 66 158 3.0 6.0 0.05 0.05 0.05 73 1017.1
20260510010016 66 180 6.0 11.0 0.05 0.05 0.05 72 1017.3
20260510005516 67 135 3.0 7.0 0.05 0.05 0.05 72 1016.5
20260510005016 68 180 8.0 13.0 0.05 0.05 0.05 69 1017.0
20260510004517 69 180 12.0 21.0 0.01 0.01 0.01 67 1017.2
20260510004017 67 203 10.0 23.0 0.00 0.00 0.00 68 1018.2
20260510003516 67 180 8.0 20.0 0.00 0.00 0.00 70 1016.5
20260510003016 67 180 10.0 18.0 0.00 0.00 0.00 70 1016.2
20260510002516 67 225 10.0 21.0 0.00 0.00 0.00 70 1016.0
20260510002017 67 203 13.0 21.0 0.00 0.00 0.00 70 1015.9
20260510001516 66 203 10.0 19.0 0.00 0.00 0.00 70 1015.8
20260510001016 66 180 7.0 16.0 0.00 0.00 0.00 71 1015.7
20260510000516 66 158 7.0 17.0 0.00 0.00 0.00 71 1015.6
20260510000016 66 180 6.0 16.0 0.00 0.00 0.00 71 1015.6
20260509235516 66 203 8.0 14.0 0.00 0.00 0.00 71 1015.7
20260509235016 66 203 9.0 16.0 0.00 0.00 0.00 71 1015.7
20260509234516 66 180 9.0 20.0 0.00 0.00 0.00 72 1015.7
20260509234016 66 180 7.0 14.0 0.00 0.00 0.00 72 1015.7
20260509233516 65 225 7.0 14.0 0.00 0.00 0.00 72 1015.7
20260509233016 65 180 9.0 14.0 0.00 0.00 0.00 73 1015.8
20260509232536 65 203 8.0 14.0 0.00 0.00 0.00 73 1016.1
20260509232016 65 180 6.0 14.0 0.00 0.00 0.00 73 1016.3
20260509231536 65 180 10.0 18.0 0.00 0.00 0.00 74 1016.3
20260509231016 65 180 8.0 17.0 0.00 0.00 0.00 74 1016.4
20260509230557 65 180 5.0 11.0 0.00 0.00 0.00 75 1016.5
20260509230016 65 180 6.0 15.0 0.00 0.00 0.00 75 1016.5
20260509225516 65 180 7.0 15.0 0.00 0.00 0.00 75 1016.7
20260509225036 65 180 10.0 17.0 0.00 0.00 0.00 75 1016.7
20260509224516 64 158 10.0 18.0 0.00 0.00 0.00 74 1016.8
20260509224016 64 158 8.0 15.0 0.00 0.00 0.00 74 1016.9
20260509223516 64 180 8.0 14.0 0.00 0.00 0.00 74 1016.8
20260509223016 64 158 9.0 16.0 0.00 0.00 0.00 74 1016.8
20260509222516 64 135 9.0 17.0 0.00 0.00 0.00 74 1016.9
20260509222036 64 158 8.0 14.0 0.00 0.00 0.00 73 1016.9
20260509221516 65 158 8.0 17.0 0.00 0.00 0.00 73 1017.0
20260509221016 64 158 10.0 18.0 0.00 0.00 0.00 73 1017.0
20260509220516 64 180 9.0 17.0 0.00 0.00 0.00 74 1017.1
20260509220016 64 180 10.0 16.0 0.00 0.00 0.00 75 1017.0
20260509215518 64 158 11.0 17.0 0.00 0.00 0.00 75 1017.1
20260509215018 64 180 11.0 24.0 0.00 0.00 0.00 76 1017.2
20260509214518 64 158 11.0 17.0 0.00 0.00 0.00 75 1017.2
20260509214018 64 180 9.0 17.0 0.00 0.00 0.00 76 1017.2
20260509213518 64 158 9.0 16.0 0.00 0.00 0.00 77 1017.2